#datetime,building,power
2022-07-27T00:00:00,pkn,9.60
2022-07-27T00:01:00,pkn,3.60
2022-07-27T00:02:00,pkn,1.20
2022-07-27T00:03:00,pkn,9.60
2022-07-27T00:04:00,pkn,3.60
2022-07-27T00:05:00,pkn,2.40
2022-07-27T00:07:00,pkn,1.20
2022-07-27T00:09:00,pkn,1.20
2022-07-27T00:10:00,pkn,1.20
2022-07-27T00:12:00,pkn,1.20
2022-07-27T00:14:00,pkn,1.20
2022-07-27T00:15:00,pkn,1.20
2022-07-27T00:18:00,pkn,1.20
2022-07-27T00:20:00,pkn,2.40
2022-07-27T00:22:00,pkn,1.20
2022-07-27T00:24:00,pkn,1.20
2022-07-27T00:26:00,pkn,1.20
2022-07-27T00:28:00,pkn,1.20
2022-07-27T00:30:00,pkn,9.60
2022-07-27T00:32:00,pkn,9.60
2022-07-27T00:34:00,pkn,9.60
2022-07-27T00:35:00,pkn,4.80
2022-07-27T00:36:00,pkn,3.60
2022-07-27T00:37:00,pkn,9.60
2022-07-27T00:39:00,pkn,6.00
2022-07-27T00:41:00,pkn,1.20
2022-07-27T00:44:00,pkn,2.40
2022-07-27T00:46:00,pkn,1.20
2022-07-27T00:48:00,pkn,1.20
2022-07-27T00:51:00,pkn,1.20
2022-07-27T00:52:00,pkn,1.20
2022-07-27T00:54:00,pkn,1.20
2022-07-27T00:56:00,pkn,1.20
2022-07-27T00:57:00,pkn,1.20
2022-07-27T00:59:00,pkn,1.20
2022-07-27T01:00:00,pkn,1.20
2022-07-27T01:02:00,pkn,1.20
2022-07-27T01:05:00,pkn,1.20
2022-07-27T01:06:00,pkn,1.20
2022-07-27T01:08:00,pkn,1.20
2022-07-27T01:09:00,pkn,1.20
2022-07-27T01:11:00,pkn,1.20
2022-07-27T01:13:00,pkn,7.20
2022-07-27T01:14:00,pkn,1.20
2022-07-27T01:15:00,pkn,8.40
2022-07-27T01:16:00,pkn,1.20
2022-07-27T01:17:00,pkn,7.20
2022-07-27T01:19:00,pkn,9.60
2022-07-27T01:21:00,pkn,3.60
2022-07-27T01:23:00,pkn,1.20
2022-07-27T01:25:00,pkn,1.20
2022-07-27T01:27:00,pkn,1.20
2022-07-27T01:28:00,pkn,1.20
2022-07-27T01:30:00,pkn,1.20
2022-07-27T01:32:00,pkn,1.20
2022-07-27T01:35:00,pkn,1.20
2022-07-27T01:36:00,pkn,1.20
2022-07-27T01:38:00,pkn,1.20
2022-07-27T01:40:00,pkn,1.20
2022-07-27T01:42:00,pkn,1.20
2022-07-27T01:44:00,pkn,1.20
2022-07-27T01:46:00,pkn,1.20
2022-07-27T01:49:00,pkn,1.20
2022-07-27T01:50:00,pkn,1.20
2022-07-27T01:53:00,pkn,1.20
2022-07-27T01:54:00,pkn,1.20
2022-07-27T01:56:00,pkn,1.20
2022-07-27T01:58:00,pkn,1.20
2022-07-27T02:01:00,pkn,1.20
2022-07-27T02:02:00,pkn,1.20
2022-07-27T02:05:00,pkn,1.20
2022-07-27T02:07:00,pkn,1.20
2022-07-27T02:09:00,pkn,1.20
2022-07-27T02:11:00,pkn,1.20
2022-07-27T02:12:00,pkn,6.00
2022-07-27T02:13:00,pkn,3.60
2022-07-27T02:15:00,pkn,9.60
2022-07-27T02:17:00,pkn,9.60
2022-07-27T02:19:00,pkn,8.40
2022-07-27T02:21:00,pkn,1.20
2022-07-27T02:24:00,pkn,1.20
2022-07-27T02:25:00,pkn,1.20
2022-07-27T02:27:00,pkn,1.20
2022-07-27T02:30:00,pkn,1.20
2022-07-27T02:32:00,pkn,1.20
2022-07-27T02:33:00,pkn,1.20
2022-07-27T02:36:00,pkn,1.20
2022-07-27T02:37:00,pkn,1.20
2022-07-27T02:39:00,pkn,1.20
2022-07-27T02:41:00,pkn,1.20
2022-07-27T02:44:00,pkn,1.20
2022-07-27T02:45:00,pkn,1.20
2022-07-27T02:46:00,pkn,2.40
2022-07-27T02:48:00,pkn,2.40
2022-07-27T02:50:00,pkn,1.20
2022-07-27T02:52:00,pkn,2.40
2022-07-27T02:54:00,pkn,1.20
2022-07-27T02:56:00,pkn,1.20
2022-07-27T02:58:00,pkn,1.20
2022-07-27T03:00:00,pkn,1.20
2022-07-27T03:02:00,pkn,1.20
2022-07-27T03:03:00,pkn,1.20
2022-07-27T03:06:00,pkn,2.40
2022-07-27T03:09:00,pkn,1.20
2022-07-27T03:11:00,pkn,1.20
2022-07-27T03:13:00,pkn,2.40
2022-07-27T03:15:00,pkn,1.20
2022-07-27T03:17:00,pkn,1.20
2022-07-27T03:20:00,pkn,2.40
2022-07-27T03:23:00,pkn,1.20
2022-07-27T03:25:00,pkn,1.20
2022-07-27T03:27:00,pkn,2.40
2022-07-27T03:29:00,pkn,1.20
2022-07-27T03:31:00,pkn,1.20
2022-07-27T03:33:00,pkn,1.20
2022-07-27T03:35:00,pkn,1.20
2022-07-27T03:36:00,pkn,1.20
2022-07-27T03:39:00,pkn,8.40
2022-07-27T03:40:00,pkn,6.00
2022-07-27T03:42:00,pkn,9.60
2022-07-27T03:44:00,pkn,9.60
2022-07-27T03:45:00,pkn,1.20
2022-07-27T03:47:00,pkn,1.20
2022-07-27T03:49:00,pkn,1.20
2022-07-27T03:50:00,pkn,1.20
2022-07-27T03:52:00,pkn,1.20
2022-07-27T03:54:00,pkn,1.20
2022-07-27T03:56:00,pkn,1.20
2022-07-27T03:59:00,pkn,1.20
2022-07-27T04:01:00,pkn,1.20
2022-07-27T04:03:00,pkn,1.20
2022-07-27T04:05:00,pkn,1.20
2022-07-27T04:07:00,pkn,1.20
2022-07-27T04:08:00,pkn,1.20
2022-07-27T04:10:00,pkn,1.20
2022-07-27T04:13:00,pkn,1.20
2022-07-27T04:15:00,pkn,1.20
2022-07-27T04:17:00,pkn,1.20
2022-07-27T04:19:00,pkn,1.20
2022-07-27T04:21:00,pkn,1.20
2022-07-27T04:23:00,pkn,1.20
2022-07-27T04:24:00,pkn,1.20
2022-07-27T04:26:00,pkn,1.20
2022-07-27T04:28:00,pkn,1.20
2022-07-27T04:30:00,pkn,1.20
2022-07-27T04:32:00,pkn,1.20
2022-07-27T04:35:00,pkn,1.20
2022-07-27T04:37:00,pkn,1.20
2022-07-27T04:39:00,pkn,1.20
2022-07-27T04:41:00,pkn,1.20
2022-07-27T04:43:00,pkn,1.20
2022-07-27T04:45:00,pkn,1.20
2022-07-27T04:47:00,pkn,1.20
2022-07-27T04:49:00,pkn,1.20
2022-07-27T04:51:00,pkn,1.20
2022-07-27T04:52:00,pkn,1.20
2022-07-27T04:54:00,pkn,1.20
2022-07-27T04:56:00,pkn,1.20
2022-07-27T04:59:00,pkn,1.20
2022-07-27T05:00:00,pkn,1.20
2022-07-27T05:02:00,pkn,1.20
2022-07-27T05:05:00,pkn,1.20
2022-07-27T05:07:00,pkn,1.20
2022-07-27T05:08:00,pkn,1.20
2022-07-27T05:10:00,pkn,1.20
2022-07-27T05:13:00,pkn,1.20
2022-07-27T05:14:00,pkn,1.20
2022-07-27T05:16:00,pkn,1.20
2022-07-27T05:18:00,pkn,1.20
2022-07-27T05:20:00,pkn,1.20
2022-07-27T05:22:00,pkn,1.20
2022-07-27T05:25:00,pkn,2.40
2022-07-27T05:27:00,pkn,1.20
2022-07-27T05:29:00,pkn,1.20
2022-07-27T05:31:00,pkn,6.00
2022-07-27T05:32:00,pkn,1.20
2022-07-27T05:33:00,pkn,8.40
2022-07-27T05:34:00,pkn,6.00
2022-07-27T05:36:00,pkn,9.60
2022-07-27T05:37:00,pkn,4.80
2022-07-27T05:39:00,pkn,1.20
2022-07-27T05:42:00,pkn,2.40
2022-07-27T05:44:00,pkn,1.20
2022-07-27T05:47:00,pkn,1.20
2022-07-27T05:49:00,pkn,1.20
2022-07-27T05:50:00,pkn,1.20
2022-07-27T05:52:00,pkn,1.20
2022-07-27T05:54:00,pkn,1.20
2022-07-27T05:57:00,pkn,1.20
2022-07-27T05:59:00,pkn,1.20
2022-07-27T06:01:00,pkn,1.20
2022-07-27T06:04:00,pkn,1.20
2022-07-27T06:06:00,pkn,1.20
2022-07-27T06:07:00,pkn,1.20
2022-07-27T06:09:00,pkn,1.20
2022-07-27T06:12:00,pkn,1.20
2022-07-27T06:14:00,pkn,1.20
2022-07-27T06:16:00,pkn,1.20
2022-07-27T06:17:00,pkn,1.20
2022-07-27T06:20:00,pkn,1.20
2022-07-27T06:22:00,pkn,1.20
2022-07-27T06:25:00,pkn,1.20
2022-07-27T06:28:00,pkn,1.20
2022-07-27T06:31:00,pkn,1.20
2022-07-27T06:33:00,pkn,1.20
2022-07-27T06:37:00,pkn,1.20
2022-07-27T06:39:00,pkn,6.00
2022-07-27T06:40:00,pkn,3.60
2022-07-27T06:42:00,pkn,9.60
2022-07-27T06:43:00,pkn,4.80
2022-07-27T06:45:00,pkn,8.40
2022-07-27T06:47:00,pkn,8.40
2022-07-27T06:49:00,pkn,7.20
2022-07-27T06:52:00,pkn,1.20
2022-07-27T06:54:00,pkn,1.20
2022-07-27T06:56:00,pkn,1.20
2022-07-27T06:58:00,pkn,1.20
2022-07-27T07:01:00,pkn,1.20
2022-07-27T07:04:00,pkn,1.20
2022-07-27T07:06:00,pkn,1.20
2022-07-27T07:09:00,pkn,1.20
2022-07-27T07:12:00,pkn,1.20
2022-07-27T07:14:00,pkn,1.20
2022-07-27T07:18:00,pkn,1.20
2022-07-27T07:19:00,pkn,1.20
2022-07-27T07:22:00,pkn,1.20
2022-07-27T07:24:00,pkn,3.60
2022-07-27T07:26:00,pkn,9.60
2022-07-27T07:27:00,pkn,3.60
2022-07-27T07:28:00,pkn,3.60
2022-07-27T07:30:00,pkn,9.60
2022-07-27T07:32:00,pkn,9.60
2022-07-27T07:33:00,pkn,3.60
2022-07-27T07:35:00,pkn,9.60
2022-07-27T07:36:00,pkn,3.60
2022-07-27T07:37:00,pkn,1.20
2022-07-27T07:38:00,pkn,8.40
2022-07-27T07:40:00,pkn,1.20
2022-07-27T07:43:00,pkn,1.20
2022-07-27T07:45:00,pkn,1.20
2022-07-27T07:48:00,pkn,1.20
2022-07-27T07:50:00,pkn,2.40
2022-07-27T07:52:00,pkn,8.40
2022-07-27T07:54:00,pkn,9.60
2022-07-27T07:56:00,pkn,9.60
2022-07-27T07:58:00,pkn,9.60
2022-07-27T08:00:00,pkn,7.20
2022-07-27T08:01:00,pkn,6.00
2022-07-27T08:03:00,pkn,9.60
2022-07-27T08:05:00,pkn,9.60
2022-07-27T08:07:00,pkn,8.40
2022-07-27T08:09:00,pkn,9.60
2022-07-27T08:11:00,pkn,8.40
2022-07-27T08:13:00,pkn,8.40
2022-07-27T08:14:00,pkn,4.80
2022-07-27T08:16:00,pkn,4.80
2022-07-27T08:17:00,pkn,1.20
2022-07-27T08:20:00,pkn,1.20
2022-07-27T08:22:00,pkn,1.20
2022-07-27T08:25:00,pkn,1.20
2022-07-27T08:29:00,pkn,1.20
2022-07-27T08:31:00,pkn,6.00
2022-07-27T08:33:00,pkn,9.60
2022-07-27T08:34:00,pkn,3.60
2022-07-27T08:35:00,pkn,4.80
2022-07-27T08:36:00,pkn,1.20
2022-07-27T08:37:00,pkn,7.20
2022-07-27T08:38:00,pkn,1.20
2022-07-27T08:39:00,pkn,9.60
2022-07-27T08:41:00,pkn,9.60
2022-07-27T08:43:00,pkn,1.20
2022-07-27T08:46:00,pkn,1.20
2022-07-27T08:47:00,pkn,1.20
2022-07-27T08:50:00,pkn,1.20
2022-07-27T08:53:00,pkn,1.20
2022-07-27T08:54:00,pkn,1.20
2022-07-27T08:56:00,pkn,1.20
2022-07-27T08:58:00,pkn,1.20
2022-07-27T09:00:00,pkn,1.20
2022-07-27T09:01:00,pkn,3.60
2022-07-27T09:03:00,pkn,9.60
2022-07-27T09:05:00,pkn,8.40
2022-07-27T09:07:00,pkn,9.60
2022-07-27T09:08:00,pkn,4.80
2022-07-27T09:09:00,pkn,3.60
2022-07-27T09:11:00,pkn,9.60
2022-07-27T09:13:00,pkn,7.20
2022-07-27T09:15:00,pkn,1.20
2022-07-27T09:17:00,pkn,1.20
2022-07-27T09:20:00,pkn,1.20
2022-07-27T09:22:00,pkn,1.20
2022-07-27T09:23:00,pkn,1.20
2022-07-27T09:25:00,pkn,1.20
2022-07-27T09:29:00,pkn,1.20
2022-07-27T09:31:00,pkn,1.20
2022-07-27T09:32:00,pkn,1.20
2022-07-27T09:34:00,pkn,1.20
2022-07-27T09:36:00,pkn,1.20
2022-07-27T09:38:00,pkn,1.20
2022-07-27T09:40:00,pkn,1.20
2022-07-27T09:42:00,pkn,4.80
2022-07-27T09:44:00,pkn,8.40
2022-07-27T09:46:00,pkn,9.60
2022-07-27T09:47:00,pkn,3.60
2022-07-27T09:49:00,pkn,9.60
2022-07-27T09:51:00,pkn,1.20
2022-07-27T09:53:00,pkn,1.20
2022-07-27T09:54:00,pkn,1.20
2022-07-27T09:56:00,pkn,1.20
2022-07-27T09:58:00,pkn,1.20
2022-07-27T10:00:00,pkn,1.20
2022-07-27T10:02:00,pkn,1.20
2022-07-27T10:05:00,pkn,1.20
2022-07-27T10:08:00,pkn,1.20
2022-07-27T10:10:00,pkn,1.20
2022-07-27T10:12:00,pkn,1.20
2022-07-27T10:14:00,pkn,1.20
2022-07-27T10:17:00,pkn,1.20
2022-07-27T10:18:00,pkn,1.20
2022-07-27T10:20:00,pkn,1.20
2022-07-27T10:23:00,pkn,1.20
2022-07-27T10:25:00,pkn,1.20
2022-07-27T10:26:00,pkn,3.60
2022-07-27T10:28:00,pkn,9.60
2022-07-27T10:29:00,pkn,4.80
2022-07-27T10:31:00,pkn,9.60
2022-07-27T10:32:00,pkn,3.60
2022-07-27T10:34:00,pkn,9.60
2022-07-27T10:36:00,pkn,1.20
2022-07-27T10:38:00,pkn,1.20
2022-07-27T10:40:00,pkn,1.20
2022-07-27T10:43:00,pkn,1.20
2022-07-27T10:45:00,pkn,1.20
2022-07-27T10:46:00,pkn,1.20
2022-07-27T10:48:00,pkn,1.20
2022-07-27T10:51:00,pkn,1.20
2022-07-27T10:53:00,pkn,1.20
2022-07-27T10:55:00,pkn,1.20
2022-07-27T10:57:00,pkn,1.20
2022-07-27T11:00:00,pkn,1.20
2022-07-27T11:03:00,pkn,1.20
2022-07-27T11:05:00,pkn,1.20
2022-07-27T11:07:00,pkn,1.20
2022-07-27T11:09:00,pkn,1.20
2022-07-27T11:12:00,pkn,1.20
2022-07-27T11:14:00,pkn,1.20
2022-07-27T11:16:00,pkn,1.20
2022-07-27T11:18:00,pkn,1.20
2022-07-27T11:21:00,pkn,1.20
2022-07-27T11:22:00,pkn,1.20
2022-07-27T11:24:00,pkn,1.20
2022-07-27T11:26:00,pkn,1.20
2022-07-27T11:28:00,pkn,1.20
2022-07-27T11:30:00,pkn,1.20
2022-07-27T11:32:00,pkn,3.60
2022-07-27T11:34:00,pkn,9.60
2022-07-27T11:36:00,pkn,9.60
2022-07-27T11:37:00,pkn,4.80
2022-07-27T11:38:00,pkn,4.80
2022-07-27T11:40:00,pkn,3.60
2022-07-27T11:42:00,pkn,1.20
2022-07-27T11:43:00,pkn,1.20
2022-07-27T11:45:00,pkn,1.20
2022-07-27T11:48:00,pkn,1.20
2022-07-27T11:49:00,pkn,1.20
2022-07-27T11:51:00,pkn,1.20
2022-07-27T11:55:00,pkn,1.20
2022-07-27T11:56:00,pkn,1.20
2022-07-27T11:59:00,pkn,1.20
2022-07-27T12:00:00,pkn,1.20
2022-07-27T12:03:00,pkn,1.20
2022-07-27T12:06:00,pkn,1.20
2022-07-27T12:08:00,pkn,1.20
2022-07-27T12:10:00,pkn,1.20
2022-07-27T12:12:00,pkn,1.20
2022-07-27T12:13:00,pkn,1.20
2022-07-27T12:16:00,pkn,1.20
2022-07-27T12:18:00,pkn,1.20
2022-07-27T12:20:00,pkn,1.20
2022-07-27T12:23:00,pkn,1.20
2022-07-27T12:25:00,pkn,1.20
2022-07-27T12:28:00,pkn,1.20
2022-07-27T12:29:00,pkn,1.20
2022-07-27T12:32:00,pkn,1.20
2022-07-27T12:34:00,pkn,1.20
2022-07-27T12:35:00,pkn,1.20
2022-07-27T12:39:00,pkn,1.20
2022-07-27T12:40:00,pkn,1.20
2022-07-27T12:42:00,pkn,1.20
2022-07-27T12:44:00,pkn,1.20
2022-07-27T12:48:00,pkn,1.20
2022-07-27T12:49:00,pkn,1.20
2022-07-27T12:51:00,pkn,1.20
2022-07-27T12:54:00,pkn,1.20
2022-07-27T12:57:00,pkn,7.20
2022-07-27T12:58:00,pkn,3.60
2022-07-27T12:59:00,pkn,4.80
2022-07-27T13:01:00,pkn,8.40
2022-07-27T13:02:00,pkn,6.00
2022-07-27T13:03:00,pkn,3.60
2022-07-27T13:04:00,pkn,1.20
2022-07-27T13:06:00,pkn,1.20
2022-07-27T13:08:00,pkn,1.20
2022-07-27T13:10:00,pkn,1.20
2022-07-27T13:13:00,pkn,1.20
2022-07-27T13:15:00,pkn,1.20
2022-07-27T13:17:00,pkn,1.20
2022-07-27T13:20:00,pkn,1.20
2022-07-27T13:23:00,pkn,1.20
2022-07-27T13:25:00,pkn,1.20
2022-07-27T13:28:00,pkn,1.20
2022-07-27T13:32:00,pkn,1.20
2022-07-27T13:36:00,pkn,1.20
2022-07-27T13:38:00,pkn,1.20
2022-07-27T13:41:00,pkn,1.20
2022-07-27T13:44:00,pkn,1.20
2022-07-27T13:48:00,pkn,1.20
2022-07-27T13:51:00,pkn,1.20
2022-07-27T13:54:00,pkn,1.20
2022-07-27T13:56:00,pkn,1.20
2022-07-27T13:59:00,pkn,1.20
2022-07-27T14:03:00,pkn,1.20
2022-07-27T14:06:00,pkn,1.20
2022-07-27T14:08:00,pkn,1.20
2022-07-27T14:11:00,pkn,1.20
2022-07-27T14:14:00,pkn,1.20
2022-07-27T14:17:00,pkn,1.20
2022-07-27T14:21:00,pkn,1.20
2022-07-27T14:23:00,pkn,1.20
2022-07-27T14:27:00,pkn,1.20
2022-07-27T14:30:00,pkn,1.20
2022-07-27T14:32:00,pkn,1.20
2022-07-27T14:36:00,pkn,1.20
2022-07-27T14:38:00,pkn,7.20
2022-07-27T14:40:00,pkn,8.40
2022-07-27T14:42:00,pkn,9.60
2022-07-27T14:43:00,pkn,3.60
2022-07-27T14:45:00,pkn,7.20
2022-07-27T14:47:00,pkn,1.20
2022-07-27T14:51:00,pkn,1.20
2022-07-27T14:52:00,pkn,1.20
2022-07-27T14:55:00,pkn,1.20
2022-07-27T14:57:00,pkn,1.20
2022-07-27T15:00:00,pkn,1.20
2022-07-27T15:03:00,pkn,1.20
2022-07-27T15:07:00,pkn,1.20
2022-07-27T15:09:00,pkn,1.20
2022-07-27T15:12:00,pkn,1.20
2022-07-27T15:16:00,pkn,1.20
2022-07-27T15:19:00,pkn,1.20
2022-07-27T15:21:00,pkn,1.20
2022-07-27T15:23:00,pkn,1.20
2022-07-27T15:25:00,pkn,3.60
2022-07-27T15:27:00,pkn,8.40
2022-07-27T15:29:00,pkn,9.60
2022-07-27T15:31:00,pkn,9.60
2022-07-27T15:32:00,pkn,3.60
2022-07-27T15:33:00,pkn,6.00
2022-07-27T15:35:00,pkn,3.60
2022-07-27T15:36:00,pkn,1.20
2022-07-27T15:39:00,pkn,1.20
2022-07-27T15:41:00,pkn,1.20
2022-07-27T15:43:00,pkn,1.20
2022-07-27T15:46:00,pkn,1.20
2022-07-27T15:48:00,pkn,1.20
2022-07-27T15:50:00,pkn,1.20
2022-07-27T15:53:00,pkn,1.20
2022-07-27T15:55:00,pkn,1.20
2022-07-27T15:58:00,pkn,1.20
2022-07-27T16:00:00,pkn,1.20
2022-07-27T16:04:00,pkn,1.20
2022-07-27T16:06:00,pkn,1.20
2022-07-27T16:08:00,pkn,1.20
2022-07-27T16:12:00,pkn,1.20
2022-07-27T16:13:00,pkn,1.20
2022-07-27T16:16:00,pkn,1.20
2022-07-27T16:18:00,pkn,1.20
2022-07-27T16:20:00,pkn,1.20
2022-07-27T16:22:00,pkn,8.40
2022-07-27T16:23:00,pkn,4.80
2022-07-27T16:25:00,pkn,9.60
2022-07-27T16:26:00,pkn,1.20
2022-07-27T16:27:00,pkn,7.20
2022-07-27T16:28:00,pkn,1.20
2022-07-27T16:29:00,pkn,2.40
2022-07-27T16:31:00,pkn,1.20
2022-07-27T16:33:00,pkn,1.20
2022-07-27T16:35:00,pkn,1.20
2022-07-27T16:36:00,pkn,1.20
2022-07-27T16:39:00,pkn,1.20
2022-07-27T16:42:00,pkn,1.20
2022-07-27T16:44:00,pkn,1.20
2022-07-27T16:48:00,pkn,1.20
2022-07-27T16:50:00,pkn,1.20
2022-07-27T16:53:00,pkn,1.20
2022-07-27T16:54:00,pkn,3.60
2022-07-27T16:55:00,pkn,4.80
2022-07-27T16:57:00,pkn,8.40
2022-07-27T16:59:00,pkn,8.40
2022-07-27T17:00:00,pkn,4.80
2022-07-27T17:02:00,pkn,9.60
2022-07-27T17:04:00,pkn,8.40
2022-07-27T17:05:00,pkn,4.80
2022-07-27T17:07:00,pkn,1.20
2022-07-27T17:10:00,pkn,1.20
2022-07-27T17:14:00,pkn,1.20
2022-07-27T17:18:00,pkn,1.20
2022-07-27T17:20:00,pkn,1.20
2022-07-27T17:24:00,pkn,1.20
2022-07-27T17:27:00,pkn,1.20
2022-07-27T17:29:00,pkn,1.20
2022-07-27T17:32:00,pkn,1.20
2022-07-27T17:35:00,pkn,1.20
2022-07-27T17:37:00,pkn,1.20
2022-07-27T17:39:00,pkn,1.20
2022-07-27T17:42:00,pkn,1.20
2022-07-27T17:45:00,pkn,1.20
2022-07-27T17:47:00,pkn,1.20
2022-07-27T17:48:00,pkn,1.20
2022-07-27T17:49:00,pkn,1.20
2022-07-27T17:50:00,pkn,1.20
2022-07-27T17:52:00,pkn,9.60
2022-07-27T17:53:00,pkn,3.60
2022-07-27T17:55:00,pkn,9.60
2022-07-27T17:56:00,pkn,4.80
2022-07-27T17:58:00,pkn,9.60
2022-07-27T18:01:00,pkn,1.20
2022-07-27T18:04:00,pkn,1.20
2022-07-27T18:05:00,pkn,1.20
2022-07-27T18:08:00,pkn,1.20
2022-07-27T18:10:00,pkn,1.20
2022-07-27T18:11:00,pkn,1.20
2022-07-27T18:14:00,pkn,1.20
2022-07-27T18:17:00,pkn,1.20
2022-07-27T18:19:00,pkn,1.20
2022-07-27T18:22:00,pkn,1.20
2022-07-27T18:23:00,pkn,1.20
2022-07-27T18:25:00,pkn,1.20
2022-07-27T18:27:00,pkn,1.20
2022-07-27T18:30:00,pkn,1.20
2022-07-27T18:32:00,pkn,1.20
2022-07-27T18:35:00,pkn,1.20
2022-07-27T18:37:00,pkn,1.20
2022-07-27T18:39:00,pkn,1.20
2022-07-27T18:42:00,pkn,1.20
2022-07-27T18:44:00,pkn,1.20
2022-07-27T18:45:00,pkn,1.20
2022-07-27T18:48:00,pkn,1.20
2022-07-27T18:51:00,pkn,1.20
2022-07-27T18:53:00,pkn,1.20
2022-07-27T18:55:00,pkn,1.20
2022-07-27T18:58:00,pkn,1.20
2022-07-27T18:59:00,pkn,1.20
2022-07-27T19:01:00,pkn,1.20
2022-07-27T19:04:00,pkn,2.40
2022-07-27T19:06:00,pkn,9.60
2022-07-27T19:08:00,pkn,8.40
2022-07-27T19:09:00,pkn,4.80
2022-07-27T19:11:00,pkn,8.40
2022-07-27T19:13:00,pkn,8.40
2022-07-27T19:14:00,pkn,1.20
2022-07-27T19:15:00,pkn,2.40
2022-07-27T19:18:00,pkn,1.20
2022-07-27T19:20:00,pkn,1.20
2022-07-27T19:21:00,pkn,1.20
2022-07-27T19:24:00,pkn,1.20
2022-07-27T19:26:00,pkn,1.20
2022-07-27T19:29:00,pkn,1.20
2022-07-27T19:31:00,pkn,1.20
2022-07-27T19:33:00,pkn,1.20
2022-07-27T19:35:00,pkn,1.20
2022-07-27T19:39:00,pkn,1.20
2022-07-27T19:42:00,pkn,1.20
2022-07-27T19:45:00,pkn,1.20
2022-07-27T19:47:00,pkn,1.20
2022-07-27T19:50:00,pkn,1.20
2022-07-27T19:52:00,pkn,1.20
2022-07-27T19:55:00,pkn,1.20
2022-07-27T19:59:00,pkn,1.20
2022-07-27T20:00:00,pkn,1.20
2022-07-27T20:03:00,pkn,1.20
2022-07-27T20:07:00,pkn,1.20
2022-07-27T20:10:00,pkn,1.20
2022-07-27T20:12:00,pkn,1.20
2022-07-27T20:14:00,pkn,1.20
2022-07-27T20:17:00,pkn,1.20
2022-07-27T20:19:00,pkn,1.20
2022-07-27T20:22:00,pkn,1.20
2022-07-27T20:24:00,pkn,1.20
2022-07-27T20:25:00,pkn,2.40
2022-07-27T20:26:00,pkn,4.80
2022-07-27T20:28:00,pkn,8.40
2022-07-27T20:30:00,pkn,9.60
2022-07-27T20:31:00,pkn,4.80
2022-07-27T20:32:00,pkn,4.80
2022-07-27T20:34:00,pkn,8.40
2022-07-27T20:35:00,pkn,4.80
2022-07-27T20:37:00,pkn,4.80
2022-07-27T20:41:00,pkn,1.20
2022-07-27T20:42:00,pkn,1.20
2022-07-27T20:45:00,pkn,1.20
2022-07-27T20:47:00,pkn,1.20
2022-07-27T20:49:00,pkn,1.20
2022-07-27T20:52:00,pkn,1.20
2022-07-27T20:54:00,pkn,1.20
2022-07-27T20:57:00,pkn,2.40
2022-07-27T21:00:00,pkn,2.40
2022-07-27T21:03:00,pkn,2.40
2022-07-27T21:05:00,pkn,1.20
2022-07-27T21:07:00,pkn,1.20
2022-07-27T21:09:00,pkn,1.20
2022-07-27T21:11:00,pkn,1.20
2022-07-27T21:12:00,pkn,1.20
2022-07-27T21:13:00,pkn,1.20
2022-07-27T21:15:00,pkn,1.20
2022-07-27T21:17:00,pkn,1.20
2022-07-27T21:19:00,pkn,1.20
2022-07-27T21:20:00,pkn,1.20
2022-07-27T21:22:00,pkn,7.20
2022-07-27T21:23:00,pkn,3.60
2022-07-27T21:25:00,pkn,9.60
2022-07-27T21:27:00,pkn,9.60
2022-07-27T21:28:00,pkn,4.80
2022-07-27T21:30:00,pkn,9.60
2022-07-27T21:32:00,pkn,2.40
2022-07-27T21:34:00,pkn,1.20
2022-07-27T21:36:00,pkn,1.20
2022-07-27T21:38:00,pkn,1.20
2022-07-27T21:40:00,pkn,1.20
2022-07-27T21:42:00,pkn,1.20
2022-07-27T21:44:00,pkn,1.20
2022-07-27T21:46:00,pkn,1.20
2022-07-27T21:48:00,pkn,1.20
2022-07-27T21:50:00,pkn,1.20
2022-07-27T21:52:00,pkn,1.20
2022-07-27T21:54:00,pkn,2.40
2022-07-27T21:57:00,pkn,1.20
2022-07-27T21:58:00,pkn,2.40
2022-07-27T22:00:00,pkn,9.60
2022-07-27T22:01:00,pkn,6.00
2022-07-27T22:03:00,pkn,9.60
2022-07-27T22:05:00,pkn,9.60
2022-07-27T22:07:00,pkn,7.20
2022-07-27T22:09:00,pkn,1.20
2022-07-27T22:10:00,pkn,1.20
2022-07-27T22:12:00,pkn,1.20
2022-07-27T22:13:00,pkn,1.20
2022-07-27T22:16:00,pkn,2.40
2022-07-27T22:18:00,pkn,1.20
2022-07-27T22:20:00,pkn,1.20
2022-07-27T22:21:00,pkn,1.20
2022-07-27T22:23:00,pkn,1.20
2022-07-27T22:25:00,pkn,1.20
2022-07-27T22:27:00,pkn,1.20
2022-07-27T22:29:00,pkn,2.40
2022-07-27T22:31:00,pkn,1.20
2022-07-27T22:33:00,pkn,1.20
2022-07-27T22:35:00,pkn,1.20
2022-07-27T22:37:00,pkn,1.20
2022-07-27T22:39:00,pkn,1.20
2022-07-27T22:41:00,pkn,1.20
2022-07-27T22:42:00,pkn,1.20
2022-07-27T22:45:00,pkn,1.20
2022-07-27T22:46:00,pkn,1.20
2022-07-27T22:48:00,pkn,1.20
2022-07-27T22:50:00,pkn,1.20
2022-07-27T22:52:00,pkn,3.60
2022-07-27T22:53:00,pkn,4.80
2022-07-27T22:54:00,pkn,4.80
2022-07-27T22:56:00,pkn,9.60
2022-07-27T22:58:00,pkn,10.80
2022-07-27T22:59:00,pkn,3.60
2022-07-27T23:01:00,pkn,2.40
2022-07-27T23:03:00,pkn,1.20
2022-07-27T23:05:00,pkn,2.40
2022-07-27T23:07:00,pkn,1.20
2022-07-27T23:10:00,pkn,1.20
2022-07-27T23:12:00,pkn,2.40
2022-07-27T23:14:00,pkn,1.20
2022-07-27T23:17:00,pkn,2.40
2022-07-27T23:19:00,pkn,10.80
2022-07-27T23:21:00,pkn,9.60
2022-07-27T23:22:00,pkn,3.60
2022-07-27T23:23:00,pkn,6.00
2022-07-27T23:25:00,pkn,8.40
2022-07-27T23:27:00,pkn,9.60
2022-07-27T23:28:00,pkn,4.80
2022-07-27T23:29:00,pkn,4.80
2022-07-27T23:30:00,pkn,4.80
2022-07-27T23:32:00,pkn,9.60
2022-07-27T23:33:00,pkn,6.00
2022-07-27T23:35:00,pkn,9.60
2022-07-27T23:36:00,pkn,3.60
2022-07-27T23:38:00,pkn,10.80
2022-07-27T23:40:00,pkn,9.60
2022-07-27T23:42:00,pkn,9.60
2022-07-27T23:44:00,pkn,8.40
2022-07-27T23:46:00,pkn,10.80
2022-07-27T23:48:00,pkn,9.60
2022-07-27T23:49:00,pkn,4.80
2022-07-27T23:51:00,pkn,9.60
2022-07-27T23:52:00,pkn,4.80
2022-07-27T23:54:00,pkn,8.40
2022-07-27T23:56:00,pkn,1.20
2022-07-27T23:57:00,pkn,1.20
2022-07-27T23:59:00,pkn,1.20
